This demonstration page uses our WeatherBlox Daily Observations layout. Learn more.

Left ArrowRight Arrow

41.55636, -103.73856

Hourly Observations for July 8, 2018

Temp ( °F °C ) Dew Point ( °F °C ) Humidity (%) Winds ( mph kmh ) Pressure ( in mb ) Visibility ( mi km ) Precip ( " mm )
12:58 am 00:58 Partly Cloudy 67 19.4 55 12.6 65 65 SW 9 15 30.04 1017 10 16 N/A
1:58 am 01:58 Clear 68 19.9 53 11.7 59 59 SSW 9 15 30.00 1016 10 16 N/A
2:58 am 02:58 Clear 65 18.6 54 12.1 66 66 S 8 13 29.97 1015 10 16 N/A
3:58 am 03:58 Clear 64 17.8 54 12.4 71 71 S 7 11 29.97 1015 10 16 N/A
4:58 am 04:58 Clear 63 17 55 13 77 77 S 8 13 29.98 1015 10 16 N/A
5:58 am 05:58 Mostly Sunny 61 16.1 55 12.5 79 79 SW 10 17 30.00 1016 10 16 N/A
6:58 am 06:58 Sunny 64 18 56 13.4 75 75 SSW 9 15 30.00 1016 10 16 N/A
7:58 am 07:58 Sunny 70 21.2 57 13.7 62 62 SSW 10 17 30.01 1016 10 16 N/A
8:58 am 08:58 Sunny 75 24 59 15 57 57 WSW 8 13 30.01 1016 10 16 N/A
9:58 am 09:58 Sunny 81 27.2 54 12.4 40 40 W 3 6 30.01 1016 10 16 N/A
10:58 am 10:58 Sunny 86 30 52 11 31 31 N N/A 30.01 1016 10 16 N/A
11:58 am 11:58 Sunny 89 31.4 47 8.6 24 24 NE 7 11 30.02 1017 10 16 N/A
12:58 pm 12:58 Sunny 90 32 50 10 26 26 NE 5 7 30.01 1016 10 16 N/A
1:58 pm 13:58 Sunny 91 33 54 12 28 28 NE 13 20 30.00 1016 10 16 N/A
2:58 pm 14:58 Sunny 91 33 52 11 26 26 ENE 13 20 30.00 1016 10 16 N/A
3:58 pm 15:58 Sunny 91 33 52 11 26 26 E 8 13 30.01 1016 10 16 N/A
4:58 pm 16:58 Sunny 91 33 52 11 26 26 E 8 13 30.00 1016 10 16 N/A
5:58 pm 17:58 Sunny 91 33 52 11 26 26 ESE 3 6 29.98 1015 10 16 N/A
6:58 pm 18:58 Mostly Sunny 84 29.1 49 9.4 29 29 SE 18 30 30.01 1016 10 16 N/A
7:58 pm 19:58 Mostly Sunny 80 26.8 55 12.8 42 42 S 6 9 30.03 1017 10 16 N/A
8:58 pm 20:58 Clear 77 25 57 14 51 51 SSE 3 6 30.06 1018 10 16 N/A
9:58 pm 21:58 Clear 73 23 57 14 57 57 SSE 9 15 30.08 1019 10 16 N/A
10:58 pm 22:58 Clear 73 22.9 51 10.7 46 46 S 9 15 30.07 1018 10 16 N/A
11:58 pm 23:58 Clear 69 20.8 52 11 54 54 S 9 15 30.08 1019 10 16 N/A

Powered by AerisWeather